User: anonymous
Location: Vancouver
(49.2500°N, 123.1330°W)
Time: 00:38:35
(UTC-07:00)
Language:

Cosmos 2333 Rocket - Orbit

View from above orbital plane
View from above orbital plane
View from above satellite
View from above satellite

Ground track
Ground track

The orbit data is extracted from the following two-line orbital elements,

1 24298U 96051B   14243.78669007 -.00000136  00000-0 -47255-4 0  5314
2 24298 070.8639 052.7495 0018387 260.8993 191.1644 14.12465497927744
Epoch (UTC): 31 August 2014 18:52:50
Eccentricity: 0.0018387
inclination: 70.8639°
perigee height: 837 km
apogee height: 864 km
right ascension of ascending node: 52.7495°
argument of perigee: 260.8993°
revolutions per day: 14.12465497
mean anomaly at epoch: 191.1644°
orbit number at epoch: 92774

The dashed part of the orbit path shows where the satellite is in the earth's shadow,  

DLR